DCWKM EDDH-EHAM

Flight info

Callsign DCWKM
Flight time N/A
Altitude 24000
Route WSN5G WSN N125 BLUFA
Aircraft B350/L-SBGRW/S

Departure

Time 2026-05-05 15:57
Airport Hamburg Helmut Schmidt Airport (EDDH)

Arrival

Time N/A
Airport Amsterdam Airport Schiphol (EHAM)
Time Latitude Longitude Altitude Speed Heading
2026-05-05 15:23 53.62647 9.98756 58 ft 0 kts 240°
2026-05-05 15:51 53.62639 9.98731 58 ft 4 kts 255°
2026-05-05 15:51 53.62667 9.98687 58 ft 7 kts 333°
2026-05-05 15:52 53.62722 9.98640 58 ft 7 kts 342°
2026-05-05 15:52 53.62763 9.98701 58 ft 9 kts 51°
2026-05-05 15:52 53.62809 9.98796 58 ft 11 kts 50°
2026-05-05 15:52 53.62866 9.98912 58 ft 14 kts 50°
2026-05-05 15:53 53.62939 9.99059 58 ft 17 kts 50°
2026-05-05 15:53 53.63024 9.99232 58 ft 20 kts 48°
2026-05-05 15:53 53.63126 9.99312 58 ft 10 kts 13°
2026-05-05 15:53 53.63139 9.99318 58 ft 0 kts 13°
2026-05-05 15:55 53.63142 9.99319 58 ft 2 kts 13°
2026-05-05 15:55 53.63176 9.99333 58 ft 7 kts 14°
2026-05-05 15:55 53.63241 9.99373 58 ft 10 kts 49°
2026-05-05 15:55 53.63262 9.99407 58 ft 0 kts 334°
2026-05-05 15:56 53.63265 9.99404 58 ft 3 kts 334°
2026-05-05 15:56 53.63339 9.99340 58 ft 13 kts 335°
2026-05-05 15:56 53.63366 9.99317 58 ft 0 kts 331°
2026-05-05 15:56 53.63391 9.99295 58 ft 13 kts 332°
2026-05-05 15:57 53.63753 9.98983 58 ft 103 kts 333°
2026-05-05 15:57 53.64520 9.98297 289 ft 139 kts 335°
2026-05-05 15:57 53.65414 9.97537 909 ft 149 kts 337°
2026-05-05 15:57 53.66334 9.96769 1597 ft 152 kts 338°
2026-05-05 15:58 53.67256 9.95989 2271 ft 152 kts 338°
2026-05-05 15:58 53.68191 9.95189 2907 ft 151 kts 338°
2026-05-05 15:58 53.69119 9.94393 3480 ft 153 kts 337°
2026-05-05 15:58 53.70069 9.93575 4040 ft 157 kts 336°
2026-05-05 15:59 53.71029 9.92709 4621 ft 160 kts 325°
2026-05-05 15:59 53.71592 9.91097 5125 ft 170 kts 280°
2026-05-05 15:59 53.71395 9.89106 5573 ft 182 kts 254°
2026-05-05 15:59 53.70999 9.87061 6133 ft 187 kts 253°
2026-05-05 16:00 53.70590 9.84976 6756 ft 187 kts 253°
2026-05-05 16:00 53.70188 9.82936 7365 ft 186 kts 253°
2026-05-05 16:00 53.69785 9.80892 7958 ft 185 kts 253°
2026-05-05 16:00 53.69381 9.78851 8522 ft 185 kts 253°
2026-05-05 16:01 53.68978 9.76815 9058 ft 185 kts 253°
2026-05-05 16:01 53.68577 9.74779 9570 ft 185 kts 253°
2026-05-05 16:01 53.68171 9.72716 10082 ft 185 kts 253°
2026-05-05 16:01 53.67779 9.70721 10673 ft 179 kts 253°
2026-05-05 16:02 53.67390 9.68749 11221 ft 175 kts 253°
2026-05-05 16:02 53.67009 9.66820 11705 ft 174 kts 253°
2026-05-05 16:02 53.66627 9.64881 12184 ft 178 kts 253°
2026-05-05 16:02 53.66242 9.62934 12704 ft 179 kts 252°
2026-05-05 16:03 53.65852 9.60964 13247 ft 179 kts 252°
2026-05-05 16:03 53.65458 9.58974 13768 ft 178 kts 252°
2026-05-05 16:03 53.64903 9.57118 14195 ft 181 kts 237°
2026-05-05 16:03 53.64167 9.55403 14657 ft 182 kts 236°
2026-05-05 16:04 53.63424 9.53669 15085 ft 183 kts 236°
2026-05-05 16:04 53.62690 9.51955 15510 ft 185 kts 236°
2026-05-05 16:04 53.61934 9.50193 15952 ft 185 kts 236°
2026-05-05 16:04 53.61182 9.48439 16372 ft 186 kts 236°
2026-05-05 16:05 53.60427 9.46679 16801 ft 186 kts 236°
2026-05-05 16:05 53.59676 9.44931 17197 ft 187 kts 236°
2026-05-05 16:05 53.58910 9.43148 17572 ft 189 kts 236°
2026-05-05 16:05 53.58144 9.41366 17925 ft 189 kts 236°
2026-05-05 16:06 53.57375 9.39580 18349 ft 187 kts 237°
2026-05-05 16:06 53.56626 9.37843 18756 ft 185 kts 237°
2026-05-05 16:06 53.55867 9.36080 19101 ft 186 kts 236°
2026-05-05 16:06 53.55116 9.34337 19430 ft 188 kts 236°
2026-05-05 16:07 53.54341 9.32543 19756 ft 189 kts 236°
2026-05-05 16:07 53.53565 9.30744 20044 ft 191 kts 235°
2026-05-05 16:07 53.52784 9.28936 20347 ft 193 kts 235°
2026-05-05 16:07 53.51998 9.27121 20692 ft 193 kts 236°
2026-05-05 16:08 53.51212 9.25304 21050 ft 193 kts 235°
2026-05-05 16:08 53.50427 9.23492 21378 ft 195 kts 234°
2026-05-05 16:08 53.49620 9.21631 21717 ft 197 kts 235°
2026-05-05 16:08 53.48820 9.19788 22077 ft 196 kts 234°
2026-05-05 16:09 53.48025 9.17958 22453 ft 196 kts 234°
2026-05-05 16:09 53.47230 9.16132 22810 ft 195 kts 235°
2026-05-05 16:09 53.46435 9.14303 23151 ft 195 kts 235°
2026-05-05 16:09 53.45635 9.12464 23418 ft 198 kts 234°
2026-05-05 16:10 53.44817 9.10585 23697 ft 200 kts 234°
2026-05-05 16:10 53.43992 9.08692 23892 ft 207 kts 234°
2026-05-05 16:10 53.43114 9.06677 23903 ft 220 kts 235°
2026-05-05 16:10 53.42197 9.04574 23907 ft 231 kts 235°
2026-05-05 16:11 53.41224 9.02344 23885 ft 242 kts 235°
2026-05-05 16:11 53.38102 8.95205 23883 ft 266 kts 234°
2026-05-05 16:12 53.37005 8.92704 23915 ft 271 kts 234°
2026-05-05 16:12 53.34787 8.87530 24290 ft 267 kts 242°
2026-05-05 16:13 53.32714 8.78328 24051 ft 287 kts 249°
2026-05-05 16:13 53.32020 8.75239 24153 ft 288 kts 249°
2026-05-05 16:13 53.31298 8.71995 23779 ft 301 kts 249°
2026-05-05 16:14 53.29861 8.65530 23877 ft 301 kts 249°
2026-05-05 16:14 53.28417 8.58929 23878 ft 303 kts 249°
2026-05-05 16:15 53.26959 8.52281 23883 ft 306 kts 249°
2026-05-05 16:15 53.25624 8.45585 23880 ft 308 kts 252°
2026-05-05 16:16 53.24347 8.38787 23880 ft 309 kts 252°
2026-05-05 16:16 53.23056 8.31956 23860 ft 309 kts 251°
2026-05-05 16:17 53.21767 8.25157 23880 ft 309 kts 251°
2026-05-05 16:17 53.21112 8.21709 23892 ft 309 kts 251°
2026-05-05 16:18 53.19813 8.14893 23891 ft 310 kts 251°
2026-05-05 16:18 53.19161 8.11474 23895 ft 310 kts 251°
2026-05-05 16:18 53.17879 8.04662 23904 ft 311 kts 251°
2026-05-05 16:19 53.17230 8.01224 23899 ft 311 kts 251°
2026-05-05 16:19 53.16584 7.97806 23918 ft 311 kts 251°
2026-05-05 16:19 53.15284 7.90944 23895 ft 312 kts 251°
2026-05-05 16:20 53.13972 7.84048 23882 ft 312 kts 251°
2026-05-05 16:20 53.12658 7.77163 23888 ft 313 kts 251°
2026-05-05 16:21 53.11340 7.70282 23910 ft 314 kts 251°